Regional Weather Roundup
Issued by NWS

Home | Current Version | Previous Version | Graphics & Text | Print | Product List | Glossary On
Versions: 1 2 3 4 5 6 7 8 9 10 11 12 13 14 15 16 17 18 19 20 21 22 23 24 25 26 27 28 29 30 31 32 33 34 35 36 37 38 39 40 41 42 43 44 45 46 47 48 49 50
782
ASUS43 KDMX 162301
RWRIA

WEATHER ROUNDUP FOR IOWA
NATIONAL WEATHER SERVICE DES MOINES IA
500 PM CST MON JAN 16 2017

NOTE: "FAIR" INDICATES FEW OR NO CLOUDS BELOW 12,000 FEET WITH NO
SIGNIFICANT WEATHER AND/OR OBSTRUCTIONS TO VISIBILITY.

* - THESE STATIONS ARE NOT NWS STATIONS...THUS NOT UNDER NWS
QUALITY CONTROL.  THEY ALSO DO NOT REPORT WEATHER SUCH
AS PRECIPITATION OR FOG.

IAZ001>003-012>014-020>022-031>034-043>046-170000-
   NORTHWEST IOWA

CITY           SKY/WX    TMP DP  RH WIND       PRES   REMARKS
CARROLL *      FOG       34  34 100 NE8       29.90S VSB 1   WCI  27
CHEROKEE *     MIX PCPN  32  32 100 NE5       29.94S WCI  27
DENISON *      CLOUDY    32  32 100 NE7G14    29.89R FOG     WCI  26
LE MARS *      LGT RAIN  32  32 100 N7G14     29.96S WCI  26
ORANGE CITY *  MIX PCPN  32  32 100 NE6       29.94S WCI  26
SHELDON *      LGT RAIN  32  32 100 NE13      29.93S WCI  22
SIOUX CITY     CLOUDY    34  32  92 N9        29.95S WCI  27
SPENCER        FRZ RAIN  32  30  92 NE13      29.94F WCI  22
STORM LAKE *   LGT RAIN  32  32 100 NE12      29.92S WCI  23
$$

IAZ055>058-069>071-079>083-090>094-170000-
   SOUTHWEST IOWA

CITY           SKY/WX    TMP DP  RH WIND       PRES   REMARKS
ATLANTIC *     CLOUDY    34  32  93 NE8       29.88S FOG     WCI  27
AUDUBON *      MIX PCPN  34  30  86 CALM      29.90R
CLARINDA *     FOG       36  36 100 N10       29.88R VSB 1/4 WCI  28
COUNCIL BLFS * CLOUDY    34  34 100 N9        29.88R FOG     WCI  26
CRESTON *      FOG       32  32 100 N9        29.87R VSB<1/4 WCI  24
HARLAN  *      CLOUDY    34  32  93 NE9       29.92S WCI  26
LAMONI         FOG       37  37 100 NE5       29.83F VSB 1/4 WCI  33
RED OAK *      CLOUDY    34  34 100 NE8       29.88R FOG     WCI  27
SHENANDOAH *   FOG       34  34 100 N7        29.88R VSB 1   WCI  28
$$

IAZ047>049-059>061-072>074-084-170000-
   CENTRAL IOWA

CITY           SKY/WX    TMP DP  RH WIND       PRES   REMARKS
AMES           FOG       33  33 100 NE3       29.90S VSB 1
ANKENY *       FOG       32  32 100 NE3       29.90S VSB 1/4
BOONE *        FOG       32  32 100 MISG      29.88S VSB 1
CHARITON *     FOG       34  34 100 E3        29.85S VSB<1/4
DES MOINES     DRZL/FOG  34  33  96 NE6       29.89S VSB 1/4 WCI  29
GRINNELL*      FOG       33  33  99 E7        29.89S VSB 1/4 WCI  27
KNOXVILLE *    FOG       36  34  93 E5        29.86S VSB<1/4 WCI  32
MARSHALLTOWN   CLOUDY    33  33 100 E8        29.89S FOG     WCI  26
NEWTON *       FOG       34  34 100 NE7       29.88S VSB<1/4 WCI  28
PELLA *        FOG       35  34  98 E6        29.89S VSB 1/4 WCI  30
PERRY *        DRIZZLE   33  33 100 NE3       29.89S
$$

IAZ004>006-015-016-023>025-035-036-170000-
   NORTH CENTRAL IOWA

CITY           SKY/WX    TMP DP  RH WIND       PRES   REMARKS
ALGONA *       RAIN      32  32 100 NE14      29.92F VSB 1   WCI  22
CLARION *      CLOUDY    32  32 100 NE10      29.92S FOG     WCI  24
ESTHERVILLE    FRZ RAIN  30  30 100 NE10      29.94F FOG     WCI  21
FORT DODGE *   CLOUDY    32  30  93 CALM      29.93S
MASON CITY     CLOUDY    32  31  96 NE10      29.95R WCI  24
FOREST CITY *  MIX PCPN  32  32 100 NE9       29.93F WCI  24
WEBSTER CITY * CLOUDY    34  34 100 NE9       29.89S FOG     WCI  26
IOWA FALLS *   CLOUDY    33  32  96 E7        29.91F FOG     WCI  27
$$

IAZ007>011-017>019-026>030-037>042-050>054-066-170000-
   NORTHEAST IOWA

CITY           SKY/WX    TMP DP  RH WIND       PRES   REMARKS
CEDAR RAPIDS   CLOUDY    34  34 100 E9        29.91S FOG     WCI  27
CHARLES CITY * LGT RAIN  34  34 100 MISG      29.94F
CLINTON *      CLOUDY    35  35 100 E10       29.96R WCI  27
DECORAH *      CLOUDY    32  32 100 NE9       29.94F FOG     WCI  24
DUBUQUE        MIX PCPN  33  33 100 CALM      29.95S FOG
MONTICELLO *   CLOUDY    34  34 100 E7        29.94S WCI  28
OELWEIN *      CLOUDY    34  34 100 E10       29.92F FOG     WCI  26
WATERLOO       CLOUDY    33  32  96 E7        29.92F FOG     WCI  27
$$

IAZ064-065-067-068-078-170000-
   EAST CENTRAL IOWA

CITY           SKY/WX    TMP DP  RH WIND       PRES   REMARKS
DAVENPORT      CLOUDY    36  34  92 E14       29.95S FOG     WCI  27
IOWA CITY      CLOUDY    37  36  96 E6        29.94S FOG     WCI  32
MUSCATINE *    CLOUDY    37  36  93 SE6       29.94F FOG     WCI  33
QUAD CITIES    CLOUDY    37  35  92 E9        29.95R WCI  30
$$

IAZ062-063-075>077-085>089-095>099-170000-
   SOUTHEAST IOWA

CITY           SKY/WX    TMP DP  RH WIND       PRES   REMARKS
BURLINGTON     CLOUDY    39  39 100 E5        29.91F FOG
FAIRFIELD *    FOG       37  37 100 SE8       29.89F VSB<1/4 WCI  31
FORT MADISON * FOG       39  37  93 E3        29.91F VSB 1/2
KEOKUK *       FOG       41  41 100 E8        29.89F VSB 1
OSKALOOSA *    FOG       36  35  98 SE9       29.88F VSB 1/4 WCI  29
CENTERVILLE *  LGT RAIN  37  37 100 CALM      29.88S VSB 3/4
OTTUMWA        FOG       36  36 100 SE7       29.88S VSB 1/4 WCI  30
WASHINGTON *   MIX PCPN  36  36 100 E7        29.92F VSB 1/2 WCI  30
$$

ABBREVIATIONS USED IN REMARKS
   TC - TEMPERATURES IN CELSIUS
  WCI - WIND CHILL INDEX
   HX - HEAT INDEX
  VSB - VISIBILITY
$$





USA.gov is the U.S. government's official web portal to all federal, state and local government web resources and services.